Temperature
13 13 14 14 12 11 12 13 15 16 17 19 20 20 20 20 20 20 20 20 20 20 20 19 19 19 19 18 18 18 18 18 18 18 18 18 18 17 17 17 17 17 16 16 16 16 16 16 16
13 13 14 13 11 12 13 13 15 16 18 19 20 20 20 20 21 20 20 19 19 19 19 18 18 18 18 18 18 18 18 18 18 18 17 17 17 17 17 17 17 16 16 16 16 16 16 16 15
13 13 13 11 11 12 13 15 15 17 18 18 19 20 20 20 19 19 19 19 19 19 18 18 18 17 17 17 17 18 18 17 17 17 17 17 17 17 17 16 16 16 16 16 16 16 15 15 15
13 13 12 10 12 12 13 14 15 15 16 17 17 17 18 18 18 18 18 18 19 18 18 18 17 17 17 17 17 17 17 17 17 17 17 17 16 16 16 16 16 16 15 15 15 15 15 15 15
12 12 10 10 11 12 13 14 15 14 14 15 15 15 17 17 17 17 18 18 18 18 18 17 17 17 16 16 16 16 16 16 16 16 16 16 16 16 16 16 16 15 15 15 15 15 15 15 14
12 10 9 10 11 13 13 14 14 12 13 14 14 14 16 17 17 17 17 17 17 17 17 17 16 16 16 16 16 16 16 16 16 16 16 16 16 16 16 15 15 15 15 15 15 15 15 14 14
10 8 9 10 11 12 13 13 12 12 12 13 14 13 15 16 16 16 16 16 16 16 16 16 16 16 16 16 16 16 16 16 16 16 16 16 16 15 15 15 15 15 15 15 15 14 14 14 13
10 8 9 9 10 11 11 12 12 12 12 13 13 12 13 14 14 14 15 15 15 15 15 15 15 15 15 15 15 15 15 15 15 15 15 15 15 15 15 15 15 14 14 14 14 14 14 13 13
10 7 8 9 10 10 10 10 11 11 12 12 12 12 12 12 13 13 14 14 15 14 14 14 15 15 15 15 15 15 15 15 15 15 15 15 15 15 14 14 14 14 14 14 14 14 13 13 13
9 7 8 10 10 9 9 9 10 10 10 11 11 12 12 12 12 12 12 13 13 14 14 14 14 14 14 14 14 14 14 14 14 15 15 14 14 14 14 14 14 14 14 14 14 13 13 13 12
8 7 8 9 9 9 9 9 9 9 8 10 10 11 11 11 11 11 12 12 12 13 13 13 13 13 14 14 14 14 14 14 14 14 14 14 14 14 14 13 13 13 13 13 13 13 13 12 12
8 8 8 9 9 8 8 8 9 9 9 10 10 10 10 11 11 11 11 11 12 12 12 13 13 13 13 13 13 13 13 13 14 14 14 14 14 13 13 13 13 13 13 13 13 13 12 12 12
7 7 8 8 8 8 8 8 8 9 10 10 10 10 10 10 10 10 10 11 11 11 12 12 12 12 12 12 13 13 13 13 13 13 13 13 13 13 13 13 13 13 13 13 13 12 12 12 11
7 7 7 8 8 8 8 8 8 8 9 9 9 9 9 10 10 9 10 10 10 11 11 12 12 12 12 12 12 12 13 13 13 13 13 13 13 13 13 13 13 13 13 13 12 12 12 11 11
7 6 5 7 7 8 7 6 7 9 9 8 9 9 9 9 9 9 9 9 10 10 11 11 11 11 11 11 12 12 12 12 12 12 13 13 13 13 13 13 13 13 12 12 12 12 11 11 11
5 5 5 6 7 7 6 5 7 9 8 8 8 8 8 8 9 9 9 9 9 10 10 11 11 11 11 11 11 11 12 12 12 12 12 12 12 13 13 13 13 12 12 12 12 11 11 11 10
4 3 4 5 6 7 6 5 7 8 7 7 7 7 8 8 8 9 9 9 9 9 10 10 10 10 10 10 10 11 11 11 11 12 12 12 12 12 12 12 12 12 12 12 11 11 11 10 10
4 4 4 4 5 6 5 5 7 7 7 7 7 7 7 7 8 8 8 8 8 9 9 9 9 10 10 10 10 10 10 11 11 11 11 12 12 12 12 12 12 12 12 11 11 11 11 10 10
5 4 3 4 6 5 5 5 6 7 6 6 6 7 7 7 7 8 8 8 8 8 8 9 9 9 9 9 9 9 10 10 11 11 11 11 11 11 12 12 12 12 12 11 11 11 10 10 10
5 4 3 4 6 6 5 5 6 6 6 7 6 6 6 7 7 7 7 7 7 8 8 8 8 9 9 9 9 9 9 10 10 11 11 11 11 11 11 12 12 12 11 11 11 10 10 10 10
5 4 4 4 5 4 4 4 5 6 6 7 7 6 6 6 6 7 7 7 7 7 7 8 8 8 8 9 9 9 9 9 10 10 11 11 11 11 11 11 12 11 11 11 11 10 10 10 9
4 5 5 4 3 2 3 3 4 4 5 6 6 6 6 6 6 6 6 7 7 7 7 7 8 8 8 8 8 8 8 8 9 10 10 10 10 11 11 11 11 11 11 11 11 11 11 10 10
4 5 4 4 2 2 2 2 3 4 4 5 5 6 6 6 6 6 6 6 6 7 7 7 7 8 8 8 8 8 8 8 9 9 10 10 10 10 10 11 11 11 11 11 11 10 10 10 10
5 3 3 2 1 1 2 2 2 3 4 4 5 6 6 6 6 6 6 6 6 6 7 7 7 7 8 8 8 8 8 8 8 9 9 9 9 10 10 10 11 11 11 11 11 10 10 10 10
3 1 1 0 -1 1 3 3 3 4 4 4 5 6 6 6 6 6 6 6 6 6 6 7 7 7 7 7 8 8 8 8 8 9 9 9 9 9 10 10 10 10 11 11 10 10 10 10 10
3 2 1 1 0 1 2 2 3 4 4 5 6 6 6 6 6 6 5 5 5 6 6 6 6 7 7 7 7 8 8 8 8 8 9 9 9 9 10 10 10 10 10 10 10 10 10 10 10
3 2 2 0 -1 -0 1 2 3 4 4 4 5 5 5 5 5 5 5 5 5 5 5 6 6 6 6 7 7 7 8 8 8 8 9 9 9 9 9 10 10 10 10 10 10 10 10 10 10
3 2 -0 -0 -1 -0 1 1 2 3 3 4 4 4 5 5 5 5 5 5 5 5 5 6 6 6 6 6 7 7 7 8 8 8 8 8 9 9 9 9 10 10 10 10 10 10 10 10 10
3 2 1 -1 -1 -0 -0 2 3 2 3 3 3 4 4 5 5 5 5 5 5 5 5 5 5 5 6 6 6 7 7 7 8 8 8 8 9 9 9 9 10 10 10 10 9 10 10 9 9
2 2 0 -0 -1 -1 -0 2 4 3 3 3 3 4 4 4 4 4 4 4 4 5 5 5 5 5 5 6 6 6 7 7 7 8 8 8 8 9 9 9 9 10 9 10 9 10 10 9 9
Wind_Speed
12 10 2 3 3 1 6 6 5 4 4 4 3 2 4 4 3 3 0 3 4 6 8 13 16 17 17 18 18 18 19 20 20 20 20 21 21 22 22 22 21 21 20 20 20 19 19 19 19
8 3 4 4 4 4 7 7 7 7 6 5 5 2 1 2 1 3 2 1 4 6 6 8 13 15 16 17 18 18 19 19 20 20 21 21 21 21 21 21 21 20 20 20 20 20 19 19 18
6 1 3 3 5 8 7 4 5 5 5 4 5 4 1 1 1 1 2 2 5 5 4 5 10 13 15 16 17 18 19 19 20 20 21 21 21 22 21 21 21 21 20 20 20 20 19 18 18
3 4 3 2 10 8 5 4 4 6 6 5 5 6 5 3 1 2 3 4 4 3 2 5 7 11 13 14 16 17 18 19 19 20 21 21 22 22 22 22 22 21 21 21 20 20 19 18 18
4 3 1 5 9 6 4 6 6 6 5 6 5 6 8 2 3 5 6 4 3 2 2 4 7 8 11 13 15 16 17 18 19 20 21 21 22 22 22 22 22 22 22 21 20 20 19 18 18
3 3 3 7 8 5 2 5 4 4 5 7 6 7 7 2 6 7 6 3 1 1 3 4 6 7 9 11 13 14 15 17 18 19 20 21 22 22 22 22 22 22 22 21 21 20 19 19 18
3 3 5 6 6 5 2 4 2 5 7 6 5 7 7 7 9 8 6 4 2 1 2 3 5 6 7 9 11 13 14 15 17 18 19 20 22 23 23 23 23 23 22 22 21 20 19 19 18
3 2 3 5 5 5 3 5 2 5 8 6 3 4 7 11 14 11 8 6 4 2 2 3 3 4 5 6 9 11 13 15 15 16 17 18 20 22 22 23 24 24 23 22 21 20 19 18 18
3 1 5 5 4 6 6 7 7 7 5 6 4 5 8 11 13 11 9 8 6 5 3 2 3 3 3 5 7 8 11 13 14 14 15 15 15 16 18 20 23 24 24 23 22 21 19 18 17
3 3 7 4 3 6 8 9 10 8 11 10 10 10 9 9 10 10 9 8 8 7 6 3 3 4 4 4 4 6 8 10 10 10 11 11 12 13 15 20 23 24 23 23 22 21 19 15 12
1 5 6 6 6 7 9 10 7 8 12 12 13 15 13 12 11 11 10 9 8 8 7 5 4 4 4 4 4 4 4 6 8 10 11 10 10 10 11 12 16 18 19 17 18 16 13 11 10
3 6 6 7 7 8 9 9 9 11 15 13 14 13 12 14 13 12 12 11 9 8 8 6 4 4 5 5 4 4 4 4 6 9 11 9 6 7 8 8 10 12 12 11 11 10 10 10 11
4 6 7 10 12 12 12 12 12 14 15 14 14 13 13 14 13 12 12 11 10 9 9 7 6 5 6 5 5 5 5 6 7 8 11 11 8 8 9 8 10 11 12 11 10 10 9 8 9
5 7 11 12 12 9 11 14 9 13 11 11 12 13 12 12 13 12 11 11 10 10 9 7 7 6 6 6 6 6 6 7 7 8 11 13 10 9 9 9 10 11 12 12 11 11 10 8 8
5 8 10 7 6 5 7 12 10 13 10 12 13 13 13 12 10 11 10 10 10 10 9 7 7 6 6 7 7 6 7 7 7 8 12 13 12 11 10 9 10 11 13 13 10 10 9 8 8
3 4 6 7 5 4 4 13 11 8 10 13 13 12 11 12 10 10 10 9 9 9 8 8 7 6 6 7 7 6 7 7 7 8 11 14 14 13 11 10 10 13 13 11 10 10 9 9 8
3 5 7 9 5 4 4 14 14 12 11 13 11 10 9 10 10 10 9 8 8 7 7 8 7 7 7 7 7 8 8 8 7 7 10 12 14 14 12 11 10 13 12 10 11 9 9 10 9
6 7 8 10 7 8 11 17 20 14 10 10 10 9 8 9 10 10 8 7 6 6 6 6 6 6 6 6 6 6 8 8 7 8 10 13 13 14 12 11 12 13 12 12 11 11 10 9 9
6 8 13 13 11 9 13 19 19 14 8 8 7 8 8 9 9 8 7 6 5 5 5 5 5 6 4 4 5 6 8 7 7 8 11 13 14 14 12 11 12 12 12 14 14 10 12 9 9
6 10 10 12 8 10 13 17 13 9 5 5 6 8 9 9 10 8 7 6 5 6 7 7 6 6 6 6 5 6 8 7 8 8 11 14 14 14 12 13 13 13 12 15 15 13 8 8 10
8 8 9 12 13 6 7 9 6 5 4 5 5 6 7 8 9 8 7 7 6 6 7 7 7 7 7 7 5 5 5 5 7 8 9 12 14 14 14 14 13 14 14 15 16 15 11 11 9
8 7 10 12 9 6 3 6 7 5 6 7 7 6 7 8 8 8 8 8 7 7 8 7 7 7 7 6 6 8 7 8 8 7 8 11 13 14 14 14 15 15 13 15 17 14 12 14 13
7 9 11 9 5 5 3 4 8 5 5 7 7 7 7 7 8 8 8 8 8 8 8 7 6 6 6 6 7 9 8 7 6 6 9 10 11 12 14 14 15 15 14 15 16 14 15 13 13
6 7 6 3 3 3 3 2 7 3 5 6 7 8 8 8 8 9 9 9 9 8 7 7 6 7 6 7 7 9 9 7 7 8 9 9 9 10 14 15 15 15 14 16 16 15 17 13 12
6 6 6 8 5 5 5 4 7 6 4 5 7 9 9 9 9 10 11 11 11 10 9 9 7 8 7 6 7 8 8 8 9 9 9 10 8 9 13 14 14 14 13 15 14 15 16 16 16
2 4 2 3 5 7 6 5 6 5 5 6 6 7 9 10 10 10 10 11 11 11 10 9 8 8 6 6 6 7 7 7 7 8 8 10 10 10 13 14 14 14 15 15 15 13 13 14 15
1 1 4 3 4 6 7 7 7 4 6 7 8 9 10 11 11 11 11 11 11 10 9 9 8 7 6 5 5 6 7 7 7 8 7 7 9 9 13 14 15 14 15 16 16 13 14 14 13
3 3 4 2 3 6 8 6 5 5 7 9 10 10 11 11 12 12 11 11 10 10 9 9 8 7 6 5 4 5 5 7 7 7 8 8 9 11 13 14 15 15 15 15 15 13 14 15 13
0 1 2 2 3 3 6 8 5 6 6 8 10 11 12 13 12 11 11 11 11 10 9 9 9 7 6 5 5 5 5 5 6 7 9 9 9 12 14 14 15 15 16 16 15 14 16 16 14
4 5 5 3 5 4 5 10 6 6 6 8 11 13 13 13 12 12 11 11 10 10 9 9 8 7 7 6 6 5 5 5 5 6 8 9 10 11 12 14 15 16 16 16 17 17 17 17 16
Wind_Direction
333 331 33 64 71 90 238 237 229 260 267 250 250 168 177 193 180 186 278 42 78 136 164 174 174 174 172 169 166 164 163 161 159 156 154 153 151 149 147 146 144 142 141 137 135 133 131 128 126
333 343 57 78 130 207 246 229 228 243 262 317 324 314 289 242 180 108 32 18 111 131 148 172 179 177 175 171 169 167 166 166 164 161 159 158 156 154 152 149 147 145 143 140 138 135 133 131 130
331 52 90 113 183 204 222 216 226 274 300 328 327 317 315 325 53 123 301 136 118 132 141 164 178 182 179 176 173 172 170 170 169 167 165 164 162 159 156 153 151 148 145 143 140 138 136 135 133
37 48 60 177 227 228 236 289 316 322 341 355 351 325 325 353 45 16 21 68 104 127 133 176 174 184 184 181 180 178 176 174 173 173 171 169 167 164 161 157 152 149 147 145 143 142 140 139 136
60 83 138 236 241 245 274 317 332 334 329 327 347 318 303 322 53 44 36 53 70 143 151 180 187 186 190 186 183 184 183 180 178 177 177 175 172 168 163 159 155 152 150 148 147 146 144 142 139
56 83 179 234 245 259 294 322 334 335 321 320 341 313 285 329 25 14 7 5 43 169 186 185 192 197 196 193 189 188 189 187 185 182 180 180 176 171 166 162 159 156 154 152 151 150 148 146 143
99 125 214 240 263 274 299 331 339 319 315 304 320 304 292 326 342 346 352 351 341 332 202 202 202 198 203 201 197 195 194 192 190 188 183 181 179 174 170 166 162 159 157 156 155 153 153 150 146
121 113 240 253 260 262 329 337 313 302 281 288 326 302 297 313 323 330 340 346 338 322 308 253 226 207 206 203 205 203 201 198 194 191 185 182 180 177 173 170 165 162 159 158 158 157 156 153 149
86 102 238 248 273 286 328 330 315 300 273 282 273 257 271 303 321 327 330 331 328 318 303 284 247 228 213 216 211 206 203 200 195 190 184 180 178 174 173 171 167 165 162 162 161 160 158 154 149
100 207 239 253 282 292 306 309 309 313 301 291 293 291 288 303 314 313 304 300 301 299 292 277 267 241 230 235 218 210 208 196 194 189 180 179 176 173 173 170 168 166 164 164 163 161 157 150 144
177 225 262 283 295 299 300 299 294 287 283 280 288 297 301 302 302 297 287 271 267 273 276 266 263 253 235 226 221 212 201 194 190 185 179 174 171 168 167 166 165 165 163 162 162 157 152 149 145
301 271 274 282 303 303 291 289 284 260 264 273 277 277 279 285 286 285 282 277 269 270 271 259 249 255 245 228 219 213 202 201 197 185 179 171 174 175 173 173 166 165 163 160 157 156 155 154 152
276 283 288 287 292 284 282 273 277 271 272 280 284 280 272 271 276 279 279 274 267 259 260 257 245 248 247 235 223 218 207 206 200 188 181 178 179 181 178 179 172 168 165 165 163 161 162 157 154
278 286 291 288 286 279 274 277 273 270 281 291 289 284 277 274 276 280 281 279 270 261 258 254 248 242 248 245 230 219 209 205 201 194 188 182 177 181 180 182 179 174 171 170 168 167 165 163 158
297 303 304 286 282 279 299 288 254 264 287 289 285 284 282 276 275 276 276 274 273 266 255 251 253 238 241 250 234 224 209 204 206 198 190 185 179 180 181 182 183 176 172 170 167 166 159 159 157
345 340 310 294 290 286 312 284 276 274 291 290 289 289 288 281 274 275 278 278 279 275 260 251 260 249 242 250 246 229 216 209 209 200 192 187 181 178 180 180 186 177 170 167 168 167 162 160 159
17 321 287 296 278 289 280 278 287 295 288 289 290 291 287 289 291 285 282 279 278 280 270 256 248 240 240 245 251 236 222 216 209 202 195 189 184 180 183 182 182 177 172 171 172 170 164 163 161
296 290 282 286 287 291 284 278 290 293 283 281 287 290 293 298 293 290 291 288 285 284 279 264 254 239 237 244 251 241 227 219 209 205 201 191 186 183 185 184 179 178 175 173 171 167 164 163 160
262 270 280 279 284 293 278 284 291 290 288 294 300 303 306 301 296 300 297 294 297 295 290 276 259 246 235 236 243 232 227 221 213 210 203 193 186 183 185 187 180 180 181 177 169 165 162 161 152
277 284 282 291 299 303 286 287 285 280 276 287 295 302 307 314 318 318 317 306 298 298 295 286 265 254 243 233 240 229 229 223 215 208 203 195 189 185 188 188 185 180 180 178 173 163 162 166 161
288 264 275 292 312 303 303 298 280 293 298 312 305 301 311 315 313 315 312 309 302 293 290 288 275 263 251 238 239 243 241 224 218 211 201 196 192 190 188 191 185 183 181 182 177 173 164 169 171
288 263 280 297 316 299 340 302 290 296 312 320 319 310 309 310 311 312 313 314 301 286 283 279 271 269 258 240 234 225 231 235 224 210 207 198 193 192 189 191 187 183 183 182 182 178 170 169 173
266 292 292 292 275 287 279 249 290 319 315 313 313 308 306 309 307 308 308 306 303 294 285 277 279 276 267 245 235 226 228 235 225 212 207 202 197 195 192 192 188 183 183 182 183 179 173 176 177
305 328 324 14 56 307 272 253 292 295 287 306 317 320 319 318 320 320 321 322 318 310 310 299 294 285 265 246 232 225 220 221 221 215 209 203 198 197 195 193 189 185 183 182 182 181 177 178 177
25 29 2 357 358 271 297 280 262 268 277 289 305 316 322 323 326 329 331 332 330 326 326 320 302 288 274 258 234 225 222 212 216 211 208 203 201 203 197 194 188 186 185 182 180 180 180 181 180
334 105 119 285 282 296 305 264 262 274 292 303 310 321 329 327 325 327 325 325 325 325 323 319 306 290 283 273 255 228 221 217 219 212 209 207 206 206 197 193 188 187 186 183 181 181 182 182 183
357 202 184 184 285 284 278 285 298 287 312 320 329 332 330 327 326 324 321 320 319 320 317 317 310 296 290 283 278 251 230 224 222 215 212 215 206 201 196 191 189 187 187 184 181 184 182 181 186
175 163 82 93 303 291 292 280 265 289 299 316 325 326 325 327 325 324 323 322 318 318 318 323 316 308 294 294 288 281 254 230 220 212 213 220 208 197 192 192 191 187 186 183 183 182 180 181 186
122 123 142 187 205 243 289 279 241 253 279 304 312 314 317 319 319 320 320 320 319 322 325 326 319 316 308 301 296 293 281 259 231 217 214 218 210 199 194 193 190 187 185 184 186 185 181 183 185
204 197 165 201 261 231 262 276 267 265 290 307 311 314 315 314 313 314 315 318 323 324 324 323 319 314 309 305 299 298 285 274 255 235 224 218 211 203 198 192 190 188 186 185 187 187 185 185 187
Height
1498 1499 1501 1503 1507 1513 1510 1501 1494 1490 1487 1483 1482 1482 1482 1482 1484 1488 1483 1480 1480 1480 1480 1481 1482 1484 1485 1487 1488 1490 1492 1494 1496 1498 1500 1502 1503 1505 1507 1508 1510 1512 1513 1514 1515 1517 1517 1518 1519
1497 1499 1502 1502 1509 1513 1506 1495 1491 1487 1484 1482 1482 1481 1479 1479 1480 1481 1480 1480 1480 1480 1480 1481 1482 1484 1485 1486 1488 1489 1491 1493 1495 1497 1499 1501 1503 1504 1506 1508 1509 1511 1512 1514 1515 1516 1517 1518 1519
1497 1498 1500 1502 1506 1505 1498 1488 1487 1485 1485 1483 1482 1480 1480 1480 1480 1480 1480 1479 1479 1479 1480 1480 1482 1483 1485 1486 1487 1489 1490 1492 1494 1496 1498 1500 1502 1503 1505 1507 1508 1510 1512 1513 1514 1515 1516 1517 1518
1497 1499 1500 1503 1499 1495 1490 1487 1485 1485 1484 1484 1484 1482 1480 1481 1480 1480 1479 1478 1478 1478 1479 1480 1481 1482 1484 1485 1486 1488 1489 1491 1492 1494 1496 1498 1500 1502 1504 1505 1507 1509 1510 1512 1513 1515 1516 1517 1518
1496 1498 1502 1502 1496 1491 1488 1487 1486 1486 1486 1485 1485 1483 1479 1480 1478 1477 1477 1476 1476 1477 1478 1478 1480 1481 1482 1483 1484 1486 1488 1489 1491 1492 1494 1496 1498 1500 1502 1504 1506 1507 1509 1511 1512 1514 1515 1516 1517
1497 1498 1504 1501 1494 1490 1489 1489 1487 1487 1486 1485 1484 1482 1478 1477 1475 1474 1474 1475 1475 1474 1476 1477 1478 1479 1480 1481 1482 1484 1485 1487 1488 1490 1492 1494 1496 1498 1500 1502 1504 1506 1507 1509 1511 1513 1514 1516 1517
1498 1500 1501 1498 1494 1491 1490 1489 1489 1488 1487 1485 1484 1482 1476 1474 1473 1472 1471 1472 1473 1473 1473 1474 1475 1476 1477 1478 1479 1481 1483 1484 1486 1488 1490 1492 1494 1496 1498 1500 1502 1504 1506 1508 1510 1511 1513 1515 1516
1497 1500 1499 1497 1494 1492 1491 1489 1489 1488 1486 1485 1484 1481 1477 1474 1471 1469 1468 1468 1469 1470 1470 1471 1472 1473 1474 1475 1476 1478 1479 1481 1483 1485 1487 1489 1491 1493 1495 1497 1499 1501 1504 1506 1508 1510 1512 1514 1516
1497 1503 1501 1496 1494 1492 1490 1489 1487 1485 1484 1482 1481 1480 1477 1473 1470 1468 1465 1464 1465 1467 1467 1467 1468 1470 1470 1471 1472 1474 1475 1477 1480 1481 1483 1485 1487 1489 1492 1494 1497 1499 1501 1504 1506 1508 1511 1513 1514
1497 1502 1497 1493 1493 1492 1490 1489 1487 1483 1480 1477 1475 1474 1472 1470 1468 1466 1463 1461 1460 1461 1463 1463 1463 1465 1466 1467 1468 1470 1471 1473 1475 1477 1479 1481 1483 1486 1488 1491 1494 1496 1499 1501 1504 1506 1509 1511 1513
1496 1497 1494 1492 1491 1490 1488 1486 1485 1483 1478 1475 1473 1469 1467 1465 1464 1462 1461 1459 1457 1457 1458 1459 1459 1460 1461 1462 1463 1465 1466 1468 1470 1472 1475 1477 1479 1481 1484 1487 1490 1492 1495 1498 1501 1504 1506 1509 1511
1496 1493 1492 1490 1489 1488 1486 1483 1481 1478 1474 1472 1470 1467 1464 1462 1459 1458 1456 1455 1454 1453 1453 1454 1454 1455 1456 1457 1458 1460 1461 1462 1465 1467 1470 1472 1474 1476 1479 1482 1485 1488 1491 1494 1497 1500 1504 1507 1510
1495 1492 1490 1488 1486 1484 1482 1479 1477 1471 1469 1468 1465 1463 1460 1458 1455 1454 1452 1451 1449 1448 1448 1448 1449 1450 1451 1452 1453 1454 1455 1457 1459 1462 1464 1466 1469 1471 1474 1477 1480 1483 1487 1490 1494 1497 1501 1504 1507
1493 1491 1488 1485 1482 1480 1478 1473 1473 1465 1465 1463 1461 1458 1455 1453 1451 1448 1447 1445 1444 1443 1442 1443 1444 1444 1445 1446 1447 1448 1450 1451 1453 1456 1459 1461 1464 1466 1469 1472 1475 1479 1483 1487 1490 1493 1497 1501 1505
1492 1491 1487 1482 1480 1477 1476 1471 1466 1462 1461 1458 1455 1452 1450 1447 1445 1443 1441 1440 1439 1438 1437 1437 1437 1438 1439 1439 1441 1442 1444 1445 1447 1450 1453 1455 1458 1461 1464 1467 1470 1474 1478 1483 1487 1491 1494 1498 1502
1493 1494 1492 1482 1479 1476 1479 1471 1460 1459 1457 1453 1450 1447 1444 1441 1440 1438 1436 1434 1433 1432 1431 1430 1431 1432 1433 1433 1434 1436 1437 1438 1440 1443 1446 1449 1452 1455 1458 1462 1465 1469 1473 1477 1482 1486 1490 1494 1498
1498 1500 1494 1485 1477 1475 1476 1468 1456 1456 1454 1449 1446 1442 1440 1437 1435 1433 1430 1429 1428 1426 1425 1425 1424 1426 1427 1428 1428 1429 1431 1431 1434 1436 1439 1442 1445 1449 1452 1456 1460 1464 1467 1472 1477 1482 1485 1490 1495
1500 1499 1493 1487 1477 1474 1472 1463 1453 1450 1449 1446 1442 1439 1436 1433 1430 1428 1425 1424 1423 1421 1420 1419 1419 1420 1421 1421 1422 1423 1424 1425 1427 1429 1432 1435 1439 1442 1446 1450 1454 1458 1462 1466 1472 1477 1482 1487 1492
1495 1494 1492 1481 1474 1472 1466 1457 1449 1444 1444 1440 1437 1434 1431 1428 1426 1424 1422 1420 1418 1417 1415 1414 1414 1414 1415 1415 1415 1415 1417 1417 1419 1422 1425 1428 1432 1436 1440 1444 1448 1452 1456 1460 1466 1472 1478 1483 1488
1492 1492 1487 1477 1470 1469 1461 1453 1445 1441 1440 1438 1435 1432 1429 1426 1422 1420 1418 1417 1415 1412 1411 1410 1408 1407 1408 1409 1409 1410 1411 1412 1413 1415 1418 1422 1425 1430 1434 1438 1442 1446 1451 1456 1460 1466 1472 1477 1482
1488 1488 1484 1478 1470 1466 1464 1454 1444 1439 1437 1435 1433 1431 1428 1425 1421 1417 1415 1412 1410 1408 1406 1404 1403 1402 1403 1403 1404 1405 1406 1405 1407 1409 1411 1414 1419 1423 1428 1432 1436 1440 1445 1449 1453 1459 1464 1470 1476
1488 1480 1477 1475 1478 1477 1470 1467 1447 1441 1437 1434 1431 1428 1425 1422 1419 1416 1412 1409 1406 1404 1401 1399 1398 1397 1397 1396 1397 1397 1397 1397 1398 1401 1405 1408 1412 1417 1421 1425 1430 1434 1439 1444 1448 1454 1459 1464 1469
1483 1477 1475 1473 1475 1478 1471 1473 1452 1443 1439 1434 1430 1426 1423 1421 1418 1414 1410 1406 1402 1399 1397 1394 1392 1391 1390 1390 1390 1391 1391 1392 1394 1396 1399 1401 1405 1410 1414 1419 1423 1427 1433 1438 1444 1449 1454 1459 1463
1481 1479 1475 1477 1480 1483 1470 1471 1457 1447 1440 1434 1429 1426 1423 1419 1416 1412 1408 1403 1399 1395 1392 1389 1387 1386 1385 1385 1385 1385 1385 1387 1388 1390 1393 1395 1399 1403 1408 1413 1417 1421 1426 1432 1437 1443 1448 1453 1459
1485 1492 1495 1494 1498 1487 1466 1464 1454 1441 1436 1433 1430 1426 1422 1418 1414 1410 1405 1400 1396 1391 1387 1384 1383 1381 1379 1379 1379 1380 1380 1381 1383 1385 1387 1389 1392 1397 1401 1406 1410 1415 1421 1426 1432 1438 1442 1448 1454
1489 1493 1504 1507 1501 1482 1468 1462 1447 1438 1434 1431 1429 1426 1422 1418 1413 1409 1404 1399 1394 1390 1386 1383 1380 1377 1376 1374 1374 1374 1375 1377 1379 1380 1381 1383 1387 1390 1395 1400 1404 1410 1416 1422 1427 1433 1437 1443 1449
1489 1494 1494 1502 1501 1495 1474 1460 1446 1435 1433 1430 1428 1424 1420 1416 1412 1408 1403 1398 1394 1389 1385 1380 1376 1374 1372 1371 1370 1370 1371 1372 1374 1375 1377 1379 1381 1385 1390 1395 1399 1405 1411 1417 1422 1428 1433 1439 1445
1486 1489 1499 1502 1505 1496 1477 1466 1453 1439 1434 1431 1427 1423 1419 1415 1410 1405 1401 1396 1391 1386 1382 1378 1374 1371 1369 1367 1367 1366 1366 1367 1369 1370 1372 1374 1376 1380 1385 1389 1394 1400 1406 1412 1418 1423 1428 1434 1440
1488 1490 1492 1499 1500 1498 1486 1459 1439 1436 1432 1430 1426 1422 1418 1413 1408 1404 1399 1393 1388 1383 1379 1374 1371 1369 1367 1365 1363 1362 1362 1363 1365 1365 1368 1369 1372 1376 1379 1384 1389 1394 1400 1407 1414 1419 1424 1429 1436
1484 1486 1491 1498 1497 1494 1486 1457 1433 1431 1429 1427 1424 1420 1416 1411 1406 1401 1396 1391 1386 1381 1377 1373 1370 1367 1364 1362 1360 1359 1359 1359 1359 1360 1362 1364 1367 1371 1375 1379 1384 1389 1395 1401 1408 1413 1419 1425 1431